Saint Bonnet de Bellac- Haute Vienne - France
Donnes mto: vendredi, 25/05/2012
Date Horaire Temp. E. Hum. E. P.atmo. Pluie Vent Direction Direction Ensoleilleme Solaire P. de rose Temp au vent Rafales
25/05/2012 00:00 18,3 C 86 % 1018,5 hPa 0,0 mm 0,0 km/h (0 Bft) NE 45 0 min 0 W/m 15,9 C 18,3 C 0,0 km/h (0 Bft)
25/05/2012 00:10 18,2 C 87 % 1018,4 hPa 0,0 mm 0,4 km/h (0 Bft) NE 45 0 min 0 W/m 16,0 C 18,2 C 4,3 km/h (1 Bft)
25/05/2012 00:20 18,0 C 87 % 1018,4 hPa 0,0 mm 0,0 km/h (0 Bft) NE 45 0 min 0 W/m 15,8 C 18,0 C 0,0 km/h (0 Bft)
25/05/2012 00:30 17,8 C 87 % 1018,4 hPa 0,0 mm 0,0 km/h (0 Bft) NE 45 0 min 0 W/m 15,6 C 17,8 C 0,0 km/h (0 Bft)
25/05/2012 00:40 17,6 C 88 % 1018,3 hPa 0,0 mm 0,0 km/h (0 Bft) NE 45 0 min 0 W/m 15,6 C 17,6 C 0,0 km/h (0 Bft)
25/05/2012 00:50 17,5 C 88 % 1018,2 hPa 0,0 mm 0,0 km/h (0 Bft) NE 45 0 min 0 W/m 15,5 C 17,5 C 0,0 km/h (0 Bft)
25/05/2012 01:00 17,5 C 88 % 1018,0 hPa 0,0 mm 0,0 km/h (0 Bft) N-NE 22 0 min 0 W/m 15,5 C 17,5 C 0,0 km/h (0 Bft)
25/05/2012 01:10 17,4 C 89 % 1018,0 hPa 0,0 mm 0,0 km/h (0 Bft) N-NE 22 0 min 0 W/m 15,6 C 17,4 C 0,0 km/h (0 Bft)
25/05/2012 01:20 17,2 C 89 % 1017,8 hPa 0,0 mm 0,0 km/h (0 Bft) N-NE 22 0 min 0 W/m 15,4 C 17,2 C 0,0 km/h (0 Bft)
25/05/2012 01:30 17,1 C 89 % 1017,7 hPa 0,0 mm 0,0 km/h (0 Bft) N-NE 22 0 min 0 W/m 15,3 C 17,1 C 0,0 km/h (0 Bft)
25/05/2012 01:40 17,0 C 90 % 1017,5 hPa 0,0 mm 0,0 km/h (0 Bft) N-NE 22 0 min 0 W/m 15,3 C 17,0 C 0,0 km/h (0 Bft)
25/05/2012 01:50 16,9 C 90 % 1017,5 hPa 0,0 mm 0,0 km/h (0 Bft) N-NE 22 0 min 0 W/m 15,2 C 16,9 C 0,0 km/h (0 Bft)
25/05/2012 02:00 16,8 C 90 % 1017,5 hPa 0,0 mm 0,0 km/h (0 Bft) N-NE 22 0 min 0 W/m 15,1 C 16,8 C 0,0 km/h (0 Bft)
25/05/2012 02:10 16,7 C 90 % 1017,4 hPa 0,0 mm 0,0 km/h (0 Bft) N-NE 22 0 min 0 W/m 15,0 C 16,7 C 0,0 km/h (0 Bft)
25/05/2012 02:20 16,6 C 90 % 1017,3 hPa 0,0 mm 0,0 km/h (0 Bft) N-NE 22 0 min 0 W/m 15,0 C 16,6 C 0,0 km/h (0 Bft)
25/05/2012 02:30 16,6 C 90 % 1017,2 hPa 0,0 mm 0,0 km/h (0 Bft) N-NE 22 0 min 0 W/m 15,0 C 16,6 C 0,0 km/h (0 Bft)
25/05/2012 02:40 16,8 C 91 % 1017,1 hPa 0,0 mm 0,0 km/h (0 Bft) N-NE 22 0 min 0 W/m 15,3 C 16,8 C 0,0 km/h (0 Bft)
25/05/2012 02:50 16,9 C 91 % 1017,1 hPa 0,0 mm 0,0 km/h (0 Bft) N-NE 22 0 min 0 W/m 15,4 C 16,9 C 0,0 km/h (0 Bft)
25/05/2012 03:02 16,9 C 91 % 1016,9 hPa 0,0 mm 0,0 km/h (0 Bft) N-NE 22 0 min 0 W/m 15,4 C 16,9 C 0,0 km/h (0 Bft)
25/05/2012 03:10 16,8 C 91 % 1016,9 hPa 0,0 mm 0,0 km/h (0 Bft) N-NE 22 0 min 0 W/m 15,3 C 16,8 C 0,0 km/h (0 Bft)
25/05/2012 03:20 16,7 C 91 % 1016,8 hPa 0,0 mm 0,0 km/h (0 Bft) N-NE 22 0 min 0 W/m 15,2 C 16,7 C 0,0 km/h (0 Bft)
25/05/2012 03:30 16,6 C 91 % 1016,6 hPa 0,0 mm 0,0 km/h (0 Bft) N-NE 22 0 min 0 W/m 15,1 C 16,6 C 0,0 km/h (0 Bft)
25/05/2012 03:40 16,5 C 91 % 1016,6 hPa 0,0 mm 0,0 km/h (0 Bft) N-NE 22 0 min 0 W/m 15,0 C 16,5 C 0,0 km/h (0 Bft)
25/05/2012 03:50 16,4 C 91 % 1016,7 hPa 0,0 mm 0,0 km/h (0 Bft) N-NE 22 0 min 0 W/m 14,9 C 16,4 C 0,0 km/h (0 Bft)
25/05/2012 04:00 16,3 C 91 % 1016,4 hPa 0,0 mm 0,0 km/h (0 Bft) N-NE 22 0 min 0 W/m 14,8 C 16,3 C 0,0 km/h (0 Bft)
25/05/2012 04:10 16,2 C 91 % 1016,4 hPa 0,0 mm 0,0 km/h (0 Bft) N-NE 22 0 min 0 W/m 14,7 C 16,2 C 0,0 km/h (0 Bft)
25/05/2012 04:20 16,1 C 91 % 1016,4 hPa 0,0 mm 0,0 km/h (0 Bft) N-NE 22 0 min 0 W/m 14,6 C 16,1 C 0,0 km/h (0 Bft)
25/05/2012 04:30 16,2 C 92 % 1016,2 hPa 0,0 mm 0,0 km/h (0 Bft) N-NE 22 0 min 0 W/m 14,9 C 16,2 C 0,0 km/h (0 Bft)
25/05/2012 04:40 16,2 C 92 % 1016,1 hPa 0,0 mm 0,0 km/h (0 Bft) N-NE 22 0 min 0 W/m 14,9 C 16,2 C 0,0 km/h (0 Bft)
25/05/2012 04:50 16,1 C 91 % 1016,1 hPa 0,0 mm 0,0 km/h (0 Bft) N-NE 22 0 min 0 W/m 14,6 C 16,1 C 0,0 km/h (0 Bft)
25/05/2012 05:00 15,9 C 91 % 1016,1 hPa 0,0 mm 0,0 km/h (0 Bft) N-NE 22 0 min 0 W/m 14,4 C 15,9 C 0,0 km/h (0 Bft)
25/05/2012 05:10 15,7 C 92 % 1016,1 hPa 0,0 mm 0,0 km/h (0 Bft) N-NE 22 0 min 0 W/m 14,4 C 15,7 C 0,0 km/h (0 Bft)
25/05/2012 05:20 15,6 C 92 % 1016,1 hPa 0,0 mm 0,0 km/h (0 Bft) N-NE 22 0 min 0 W/m 14,3 C 15,6 C 0,0 km/h (0 Bft)
25/05/2012 05:30 15,6 C 92 % 1015,9 hPa 0,0 mm 0,0 km/h (0 Bft) N-NE 22 0 min 0 W/m 14,3 C 15,6 C 0,0 km/h (0 Bft)
25/05/2012 05:40 15,5 C 92 % 1015,8 hPa 0,0 mm 0,0 km/h (0 Bft) N-NE 22 0 min 0 W/m 14,2 C 15,5 C 0,0 km/h (0 Bft)
25/05/2012 05:50 15,4 C 92 % 1015,6 hPa 0,0 mm 0,0 km/h (0 Bft) N-NE 22 0 min 0 W/m 14,1 C 15,4 C 0,0 km/h (0 Bft)
25/05/2012 06:00 15,4 C 92 % 1015,6 hPa 0,0 mm 0,0 km/h (0 Bft) N-NE 22 0 min 0 W/m 14,1 C 15,4 C 0,0 km/h (0 Bft)
25/05/2012 06:10 15,3 C 92 % 1015,5 hPa 0,0 mm 0,0 km/h (0 Bft) NE 45 0 min 0 W/m 14,0 C 15,3 C 0,0 km/h (0 Bft)
25/05/2012 06:20 15,4 C 92 % 1015,5 hPa 0,0 mm 0,0 km/h (0 Bft) NE 45 0 min 0 W/m 14,1 C 15,4 C 0,0 km/h (0 Bft)
25/05/2012 06:30 15,5 C 92 % 1015,5 hPa 0,0 mm 0,0 km/h (0 Bft) NE 45 0 min 0 W/m 14,2 C 15,5 C 0,0 km/h (0 Bft)
25/05/2012 06:40 15,5 C 92 % 1015,5 hPa 0,0 mm 0,0 km/h (0 Bft) NE 45 0 min 0 W/m 14,2 C 15,5 C 0,0 km/h (0 Bft)
25/05/2012 06:50 15,3 C 92 % 1015,6 hPa 0,0 mm 0,0 km/h (0 Bft) NE 45 0 min 0 W/m 14,0 C 15,3 C 0,0 km/h (0 Bft)
25/05/2012 07:00 15,3 C 92 % 1015,6 hPa 0,0 mm 0,0 km/h (0 Bft) NE 45 0 min 0 W/m 14,0 C 15,3 C 0,0 km/h (0 Bft)
25/05/2012 07:10 15,3 C 92 % 1015,6 hPa 0,0 mm 0,0 km/h (0 Bft) NE 45 0 min 0 W/m 14,0 C 15,3 C 0,0 km/h (0 Bft)
25/05/2012 07:20 15,4 C 92 % 1015,6 hPa 0,0 mm 0,0 km/h (0 Bft) NE 45 0 min 0 W/m 14,1 C 15,4 C 0,0 km/h (0 Bft)
25/05/2012 07:30 15,7 C 93 % 1015,5 hPa 0,0 mm 0,0 km/h (0 Bft) NE 45 0 min 0 W/m 14,6 C 15,7 C 0,0 km/h (0 Bft)
25/05/2012 07:40 16,0 C 93 % 1015,5 hPa 0,0 mm 0,0 km/h (0 Bft) NE 45 0 min 0 W/m 14,9 C 16,0 C 0,0 km/h (0 Bft)
25/05/2012 07:50 16,3 C 93 % 1015,5 hPa 0,0 mm 0,4 km/h (0 Bft) NE 45 0 min 0 W/m 15,2 C 16,3 C 2,9 km/h (1 Bft)
25/05/2012 08:00 16,5 C 93 % 1015,6 hPa 0,0 mm 1,1 km/h (1 Bft) NE 45 0 min 0 W/m 15,4 C 16,5 C 4,0 km/h (1 Bft)
25/05/2012 08:10 16,6 C 93 % 1015,6 hPa 0,0 mm 0,0 km/h (0 Bft) NE 45 0 min 0 W/m 15,5 C 16,6 C 0,0 km/h (0 Bft)
25/05/2012 08:20 16,8 C 93 % 1015,6 hPa 0,0 mm 0,0 km/h (0 Bft) NE 45 0 min 0 W/m 15,7 C 16,8 C 0,0 km/h (0 Bft)
25/05/2012 08:30 17,4 C 94 % 1015,5 hPa 0,0 mm 0,0 km/h (0 Bft) NE 45 0 min 0 W/m 16,4 C 17,4 C 0,0 km/h (0 Bft)
25/05/2012 08:40 17,8 C 94 % 1015,5 hPa 0,0 mm 0,4 km/h (0 Bft) NE 45 0 min 0 W/m 16,8 C 17,8 C 0,4 km/h (0 Bft)
25/05/2012 08:50 18,4 C 94 % 1015,4 hPa 0,0 mm 0,7 km/h (0 Bft) NE 45 0 min 0 W/m 17,4 C 18,4 C 0,7 km/h (0 Bft)
25/05/2012 09:00 18,9 C 94 % 1015,4 hPa 0,0 mm 0,0 km/h (0 Bft) NE 45 0 min 0 W/m 17,9 C 18,9 C 0,0 km/h (0 Bft)
25/05/2012 09:10 19,7 C 94 % 1015,4 hPa 0,0 mm 0,0 km/h (0 Bft) NE 45 0 min 0 W/m 18,7 C 19,7 C 0,0 km/h (0 Bft)
25/05/2012 09:20 20,4 C 93 % 1015,4 hPa 0,0 mm 1,8 km/h (1 Bft) NE 45 0 min 0 W/m 19,2 C 20,4 C 3,6 km/h (1 Bft)
25/05/2012 09:30 21,0 C 91 % 1015,4 hPa 0,0 mm 0,0 km/h (0 Bft) NE 45 0 min 0 W/m 19,5 C 21,0 C 0,0 km/h (0 Bft)
25/05/2012 09:40 21,7 C 88 % 1015,3 hPa 0,0 mm 0,0 km/h (0 Bft) NE 45 0 min 0 W/m 19,6 C 21,7 C 0,0 km/h (0 Bft)
25/05/2012 09:50 22,3 C 83 % 1015,3 hPa 0,0 mm 2,2 km/h (1 Bft) N 360 0 min 0 W/m 19,3 C 22,3 C 2,2 km/h (1 Bft)
25/05/2012 10:00 22,9 C 81 % 1015,2 hPa 0,0 mm 1,8 km/h (1 Bft) NE 45 0 min 0 W/m 19,5 C 22,9 C 1,8 km/h (1 Bft)
25/05/2012 10:10 23,6 C 78 % 1015,0 hPa 0,0 mm 0,0 km/h (0 Bft) N-NE 22 0 min 0 W/m 19,5 C 23,6 C 1,4 km/h (1 Bft)
25/05/2012 10:20 24,0 C 74 % 1014,9 hPa 0,0 mm 2,9 km/h (1 Bft) NE 45 0 min 0 W/m 19,1 C 24,0 C 9,4 km/h (2 Bft)
25/05/2012 10:30 24,5 C 73 % 1014,9 hPa 0,0 mm 1,4 km/h (1 Bft) N-NE 22 0 min 0 W/m 19,3 C 24,5 C 3,6 km/h (1 Bft)
25/05/2012 10:40 24,9 C 72 % 1014,8 hPa 0,0 mm 4,3 km/h (1 Bft) N-NE 22 0 min 0 W/m 19,5 C 24,9 C 8,3 km/h (2 Bft)
25/05/2012 10:50 25,3 C 69 % 1014,6 hPa 0,0 mm 6,5 km/h (2 Bft) NE 45 0 min 0 W/m 19,2 C 25,3 C 7,2 km/h (2 Bft)
25/05/2012 11:00 25,6 C 69 % 1014,8 hPa 0,0 mm 8,6 km/h (2 Bft) NE 45 0 min 0 W/m 19,5 C 25,6 C 8,6 km/h (2 Bft)
25/05/2012 11:10 25,9 C 66 % 1014,7 hPa 0,0 mm 7,2 km/h (2 Bft) N-NE 22 0 min 0 W/m 19,0 C 25,9 C 7,2 km/h (2 Bft)
25/05/2012 11:20 26,2 C 66 % 1014,7 hPa 0,0 mm 3,2 km/h (1 Bft) N-NE 22 0 min 0 W/m 19,3 C 26,2 C 6,8 km/h (2 Bft)
25/05/2012 11:30 26,5 C 64 % 1014,5 hPa 0,0 mm 2,2 km/h (1 Bft) N-NE 22 0 min 0 W/m 19,1 C 26,5 C 3,6 km/h (1 Bft)
25/05/2012 11:40 26,8 C 62 % 1014,5 hPa 0,0 mm 7,6 km/h (2 Bft) N-NE 22 0 min 0 W/m 18,9 C 26,8 C 10,4 km/h (2 Bft)
25/05/2012 11:50 26,8 C 60 % 1014,4 hPa 0,0 mm 7,9 km/h (2 Bft) N-NE 22 0 min 0 W/m 18,4 C 26,8 C 7,9 km/h (2 Bft)
25/05/2012 12:00 26,9 C 61 % 1014,3 hPa 0,0 mm 5,8 km/h (2 Bft) NE 45 0 min 0 W/m 18,7 C 26,9 C 10,4 km/h (2 Bft)
25/05/2012 12:10 27,1 C 60 % 1014,3 hPa 0,0 mm 7,6 km/h (2 Bft) N-NE 22 0 min 0 W/m 18,6 C 27,1 C 11,2 km/h (2 Bft)
25/05/2012 12:20 27,2 C 59 % 1014,2 hPa 0,0 mm 8,6 km/h (2 Bft) N 360 0 min 0 W/m 18,5 C 27,2 C 8,6 km/h (2 Bft)
25/05/2012 12:30 27,3 C 57 % 1014,1 hPa 0,0 mm 13,3 km/h (3 Bft) NE 45 0 min 0 W/m 18,0 C 27,3 C 23,0 km/h (4 Bft)
25/05/2012 12:40 27,2 C 58 % 1014,1 hPa 0,0 mm 6,1 km/h (2 Bft) N-NE 22 0 min 0 W/m 18,2 C 27,2 C 10,1 km/h (2 Bft)
25/05/2012 12:50 27,3 C 57 % 1014,1 hPa 0,0 mm 4,3 km/h (1 Bft) NE 45 0 min 0 W/m 18,0 C 27,3 C 6,8 km/h (2 Bft)
25/05/2012 13:00 27,5 C 56 % 1014,0 hPa 0,0 mm 5,8 km/h (2 Bft) E-NE 67 0 min 0 W/m 17,9 C 27,5 C 7,9 km/h (2 Bft)
25/05/2012 13:10 27,5 C 56 % 1013,9 hPa 0,0 mm 4,7 km/h (1 Bft) NE 45 0 min 0 W/m 17,9 C 27,5 C 7,9 km/h (2 Bft)
25/05/2012 13:20 27,7 C 56 % 1013,7 hPa 0,0 mm 3,2 km/h (1 Bft) N-NE 22 0 min 0 W/m 18,1 C 27,7 C 4,3 km/h (1 Bft)
25/05/2012 13:30 27,9 C 54 % 1013,6 hPa 0,0 mm 10,8 km/h (2 Bft) NE 45 0 min 0 W/m 17,7 C 27,9 C 10,8 km/h (2 Bft)
25/05/2012 13:40 28,1 C 54 % 1013,5 hPa 0,0 mm 13,7 km/h (3 Bft) NE 45 0 min 0 W/m 17,9 C 28,1 C 20,9 km/h (4 Bft)
25/05/2012 13:50 28,2 C 55 % 1013,4 hPa 0,0 mm 5,4 km/h (2 Bft) N-NE 22 0 min 0 W/m 18,3 C 28,2 C 5,4 km/h (2 Bft)
25/05/2012 14:00 28,4 C 53 % 1013,3 hPa 0,0 mm 9,0 km/h (2 Bft) N 360 0 min 0 W/m 17,9 C 28,4 C 11,2 km/h (2 Bft)
25/05/2012 14:10 28,3 C 52 % 1013,2 hPa 0,0 mm 9,4 km/h (2 Bft) E-NE 67 0 min 0 W/m 17,5 C 28,3 C 13,7 km/h (3 Bft)
25/05/2012 14:20 28,3 C 53 % 1013,0 hPa 0,0 mm 11,2 km/h (2 Bft) NE 45 0 min 0 W/m 17,8 C 28,3 C 16,2 km/h (3 Bft)
25/05/2012 14:30 28,4 C 52 % 1013,1 hPa 0,0 mm 11,5 km/h (2 Bft) E-NE 67 0 min 0 W/m 17,6 C 28,4 C 16,6 km/h (3 Bft)
25/05/2012 14:40 28,4 C 52 % 1013,0 hPa 0,0 mm 4,0 km/h (1 Bft) E-SE 112 0 min 0 W/m 17,6 C 28,4 C 4,0 km/h (1 Bft)
25/05/2012 14:50 28,4 C 52 % 1013,0 hPa 0,0 mm 10,4 km/h (2 Bft) NE 45 0 min 0 W/m 17,6 C 28,4 C 10,4 km/h (2 Bft)
25/05/2012 15:00 28,5 C 52 % 1012,8 hPa 0,0 mm 6,5 km/h (2 Bft) N-NE 22 0 min 0 W/m 17,7 C 28,5 C 11,9 km/h (2 Bft)
25/05/2012 15:10 28,4 C 52 % 1012,7 hPa 0,0 mm 7,2 km/h (2 Bft) N 360 0 min 0 W/m 17,6 C 28,4 C 9,0 km/h (2 Bft)
25/05/2012 15:20 28,4 C 51 % 1012,7 hPa 0,0 mm 9,7 km/h (2 Bft) N-NE 22 0 min 0 W/m 17,3 C 28,4 C 14,4 km/h (3 Bft)
25/05/2012 15:30 28,3 C 51 % 1012,5 hPa 0,0 mm 8,6 km/h (2 Bft) E-NE 67 0 min 0 W/m 17,2 C 28,3 C 13,7 km/h (3 Bft)
25/05/2012 15:40 28,4 C 52 % 1012,4 hPa 0,0 mm 6,8 km/h (2 Bft) E-NE 67 0 min 0 W/m 17,6 C 28,4 C 6,8 km/h (2 Bft)
25/05/2012 15:50 28,5 C 51 % 1012,3 hPa 0,0 mm 5,4 km/h (2 Bft) NE 45 0 min 0 W/m 17,4 C 28,5 C 6,8 km/h (2 Bft)
25/05/2012 16:00 28,6 C 52 % 1012,3 hPa 0,0 mm 6,5 km/h (2 Bft) N-NE 22 0 min 0 W/m 17,8 C 28,6 C 13,0 km/h (3 Bft)
25/05/2012 16:10 28,7 C 51 % 1012,3 hPa 0,0 mm 6,5 km/h (2 Bft) NE 45 0 min 0 W/m 17,5 C 28,7 C 6,5 km/h (2 Bft)
25/05/2012 16:20 28,8 C 51 % 1012,2 hPa 0,0 mm 11,9 km/h (2 Bft) E-SE 112 0 min 0 W/m 17,6 C 28,8 C 11,9 km/h (2 Bft)
25/05/2012 16:30 28,9 C 51 % 1012,1 hPa 0,0 mm 9,4 km/h (2 Bft) N-NE 22 0 min 0 W/m 17,7 C 28,9 C 12,2 km/h (2 Bft)
25/05/2012 16:40 28,8 C 51 % 1012,1 hPa 0,0 mm 7,2 km/h (2 Bft) E-NE 67 0 min 0 W/m 17,6 C 28,8 C 16,9 km/h (3 Bft)
25/05/2012 16:50 28,8 C 50 % 1012,1 hPa 0,0 mm 9,0 km/h (2 Bft) E 90 0 min 0 W/m 17,3 C 28,8 C 14,0 km/h (3 Bft)
25/05/2012 17:00 28,8 C 50 % 1011,9 hPa 0,0 mm 8,6 km/h (2 Bft) N-NE 22 0 min 0 W/m 17,3 C 28,8 C 8,6 km/h (2 Bft)
25/05/2012 17:10 28,8 C 50 % 1011,7 hPa 0,0 mm 8,3 km/h (2 Bft) E-NE 67 0 min 0 W/m 17,3 C 28,8 C 11,9 km/h (2 Bft)
25/05/2012 17:20 28,6 C 50 % 1011,7 hPa 0,0 mm 3,2 km/h (1 Bft) E-NE 67 0 min 0 W/m 17,1 C 28,6 C 7,2 km/h (2 Bft)
25/05/2012 17:30 28,6 C 51 % 1011,6 hPa 0,0 mm 5,0 km/h (1 Bft) N 360 0 min 0 W/m 17,4 C 28,6 C 5,0 km/h (1 Bft)
25/05/2012 17:40 28,7 C 51 % 1011,5 hPa 0,0 mm 4,3 km/h (1 Bft) NE 45 0 min 0 W/m 17,5 C 28,7 C 7,6 km/h (2 Bft)
25/05/2012 17:50 28,8 C 51 % 1011,5 hPa 0,0 mm 6,5 km/h (2 Bft) N-NE 22 0 min 0 W/m 17,6 C 28,8 C 8,3 km/h (2 Bft)
25/05/2012 18:00 28,9 C 51 % 1011,5 hPa 0,0 mm 8,3 km/h (2 Bft) N-NE 22 0 min 0 W/m 17,7 C 28,9 C 16,6 km/h (3 Bft)
25/05/2012 18:10 28,8 C 50 % 1011,4 hPa 0,0 mm 7,2 km/h (2 Bft) N-NE 22 0 min 0 W/m 17,3 C 28,8 C 10,8 km/h (2 Bft)
25/05/2012 18:20 28,7 C 50 % 1011,4 hPa 0,0 mm 6,8 km/h (2 Bft) N-NE 22 0 min 0 W/m 17,2 C 28,7 C 13,0 km/h (3 Bft)
25/05/2012 18:30 28,5 C 50 % 1011,5 hPa 0,0 mm 5,4 km/h (2 Bft) E-SE 112 0 min 0 W/m 17,0 C 28,5 C 6,5 km/h (2 Bft)
25/05/2012 18:40 28,4 C 50 % 1011,6 hPa 0,0 mm 7,9 km/h (2 Bft) E-NE 67 0 min 0 W/m 17,0 C 28,4 C 11,5 km/h (2 Bft)
25/05/2012 18:50 28,3 C 50 % 1011,5 hPa 0,0 mm 7,2 km/h (2 Bft) E-NE 67 0 min 0 W/m 16,9 C 28,3 C 11,5 km/h (2 Bft)
25/05/2012 19:00 28,1 C 50 % 1011,5 hPa 0,0 mm 3,6 km/h (1 Bft) NE 45 0 min 0 W/m 16,7 C 28,1 C 4,3 km/h (1 Bft)
25/05/2012 19:10 28,0 C 51 % 1011,4 hPa 0,0 mm 5,4 km/h (2 Bft) NE 45 0 min 0 W/m 16,9 C 28,0 C 7,9 km/h (2 Bft)
25/05/2012 19:20 27,8 C 51 % 1011,4 hPa 0,0 mm 6,1 km/h (2 Bft) NE 45 0 min 0 W/m 16,7 C 27,8 C 6,1 km/h (2 Bft)
25/05/2012 19:30 27,8 C 52 % 1011,4 hPa 0,0 mm 4,3 km/h (1 Bft) E-NE 67 0 min 0 W/m 17,0 C 27,8 C 7,6 km/h (2 Bft)
25/05/2012 19:40 27,5 C 52 % 1011,5 hPa 0,0 mm 7,6 km/h (2 Bft) N-NE 22 0 min 0 W/m 16,7 C 27,5 C 8,6 km/h (2 Bft)
25/05/2012 19:50 27,3 C 52 % 1011,4 hPa 0,0 mm 5,8 km/h (2 Bft) N-NE 22 0 min 0 W/m 16,6 C 27,3 C 7,6 km/h (2 Bft)
25/05/2012 20:00 27,1 C 53 % 1011,3 hPa 0,0 mm 7,2 km/h (2 Bft) E-NE 67 0 min 0 W/m 16,7 C 27,1 C 13,0 km/h (3 Bft)
25/05/2012 20:10 26,6 C 54 % 1011,4 hPa 0,0 mm 5,8 km/h (2 Bft) NE 45 0 min 0 W/m 16,5 C 26,6 C 11,2 km/h (2 Bft)
25/05/2012 20:20 26,1 C 55 % 1011,3 hPa 0,0 mm 4,7 km/h (1 Bft) NE 45 0 min 0 W/m 16,3 C 26,1 C 6,1 km/h (2 Bft)
25/05/2012 20:30 25,7 C 56 % 1011,3 hPa 0,0 mm 0,4 km/h (0 Bft) NE 45 0 min 0 W/m 16,2 C 25,7 C 0,4 km/h (0 Bft)
25/05/2012 20:40 25,3 C 57 % 1011,4 hPa 0,0 mm 0,0 km/h (0 Bft) E-NE 67 0 min 0 W/m 16,2 C 25,3 C 0,0 km/h (0 Bft)
25/05/2012 20:50 24,9 C 58 % 1011,5 hPa 0,0 mm 1,1 km/h (1 Bft) NE 45 0 min 0 W/m 16,1 C 24,9 C 6,5 km/h (2 Bft)
25/05/2012 21:00 24,6 C 58 % 1011,6 hPa 0,0 mm 1,1 km/h (1 Bft) E-NE 67 0 min 0 W/m 15,8 C 24,6 C 3,6 km/h (1 Bft)
25/05/2012 21:10 24,3 C 59 % 1011,6 hPa 0,0 mm 2,5 km/h (1 Bft) E 90 0 min 0 W/m 15,8 C 24,3 C 6,8 km/h (2 Bft)
25/05/2012 21:20 23,8 C 60 % 1011,6 hPa 0,0 mm 2,9 km/h (1 Bft) E-NE 67 0 min 0 W/m 15,6 C 23,8 C 4,3 km/h (1 Bft)
25/05/2012 21:30 23,4 C 61 % 1011,6 hPa 0,0 mm 0,4 km/h (0 Bft) E-NE 67 0 min 0 W/m 15,4 C 23,4 C 0,4 km/h (0 Bft)
25/05/2012 21:40 23,1 C 61 % 1011,5 hPa 0,0 mm 1,8 km/h (1 Bft) E 90 0 min 0 W/m 15,2 C 23,1 C 4,3 km/h (1 Bft)
25/05/2012 21:50 22,8 C 62 % 1011,6 hPa 0,0 mm 0,0 km/h (0 Bft) E-NE 67 0 min 0 W/m 15,1 C 22,8 C 0,0 km/h (0 Bft)
25/05/2012 22:00 22,4 C 63 % 1011,7 hPa 0,0 mm 0,0 km/h (0 Bft) E-NE 67 0 min 0 W/m 15,0 C 22,4 C 0,0 km/h (0 Bft)
25/05/2012 22:10 22,0 C 64 % 1011,6 hPa 0,0 mm 0,0 km/h (0 Bft) E-NE 67 0 min 0 W/m 14,9 C 22,0 C 0,0 km/h (0 Bft)
25/05/2012 22:20 21,6 C 65 % 1011,7 hPa 0,0 mm 0,0 km/h (0 Bft) E-NE 67 0 min 0 W/m 14,7 C 21,6 C 0,0 km/h (0 Bft)
25/05/2012 22:30 21,1 C 65 % 1011,7 hPa 0,0 mm 0,4 km/h (0 Bft) E 90 0 min 0 W/m 14,3 C 21,1 C 4,3 km/h (1 Bft)
25/05/2012 22:40 20,8 C 66 % 1011,9 hPa 0,0 mm 0,4 km/h (0 Bft) N 360 0 min 0 W/m 14,2 C 20,8 C 0,4 km/h (0 Bft)
25/05/2012 22:50 20,6 C 68 % 1011,8 hPa 0,0 mm 0,0 km/h (0 Bft) E-NE 67 0 min 0 W/m 14,5 C 20,6 C 0,0 km/h (0 Bft)
25/05/2012 23:00 20,4 C 68 % 1011,8 hPa 0,0 mm 0,0 km/h (0 Bft) E-NE 67 0 min 0 W/m 14,3 C 20,4 C 0,0 km/h (0 Bft)
25/05/2012 23:10 20,3 C 68 % 1011,9 hPa 0,0 mm 1,4 km/h (1 Bft) E 90 0 min 0 W/m 14,2 C 20,3 C 1,4 km/h (1 Bft)
25/05/2012 23:20 20,3 C 69 % 1011,9 hPa 0,0 mm 1,8 km/h (1 Bft) E 90 0 min 0 W/m 14,4 C 20,3 C 3,2 km/h (1 Bft)
25/05/2012 23:30 20,2 C 69 % 1011,9 hPa 0,0 mm 0,0 km/h (0 Bft) E-NE 67 0 min 0 W/m 14,3 C 20,2 C 0,0 km/h (0 Bft)
25/05/2012 23:40 20,0 C 70 % 1011,9 hPa 0,0 mm 0,0 km/h (0 Bft) E-NE 67 0 min 0 W/m 14,4 C 20,0 C 0,0 km/h (0 Bft)
25/05/2012 23:50 19,8 C 70 % 1011,7 hPa 0,0 mm 0,0 km/h (0 Bft) NE 45 0 min 0 W/m 14,2 C 19,8 C 3,2 km/h (1 Bft)
_ Min-Heure 07:10 19:00 20:30 - 23:50 - - - - 07:10 07:10 23:40
Minimum _ 15,3 C 50 % 1011,3 hPa - 0,0 km/h (0 Bft) - - - - 14,0 C 15,3 C 0,0 km/h (0 Bft)
_ Max-Heure 18:00 09:10 00:00 23:50 13:40 - - 23:50 23:50 09:40 18:00 12:30
Maximum _ 28,9 C 94 % 1018,5 hPa 0,0 mm 13,7 km/h
NE (3 Bft)
- - 0 min 0 W/m 19,6 C 28,9 C 23,0 km/h
NE (4 Bft)
Moyenne _ 22,4 C 72 % 1014,2 hPa #0,0 mm 3,1 km/h (1 Bft) N-NE - #0 min. 0 W/m 16,4 C 22,4 C 4,6 km/h (1 Bft)
Saint Bonnet de Bellac- Haute Vienne - France